EW2422 Weather Reports


time (UTC)temp
F
wind
direction
speed
knots
gust
knots
rain 1hr
in
rain 24hr
in
rain mn
in
humidity
%
barometer
mb
20210920024033 70 346 0.0 0.9 0.00 0.00 0.00 41 1012.3
20210920023530 71 346 0.9 0.9 0.00 0.00 0.00 40 1012.3
20210920023042 71 344 0.0 1.7 0.00 0.00 0.00 41 1012.2
20210920022535 72 345 0.0 1.7 0.00 0.00 0.00 38 1012.1
20210920022030 73 6 0.0 1.7 0.00 0.00 0.00 37 1012.1
20210920021527 74 8 0.0 1.7 0.00 0.00 0.00 36 1012.1
20210920021055 74 39 0.9 1.7 0.00 0.00 0.00 35 1012.0
20210920020531 75 125 0.0 2.6 0.00 0.00 0.00 35 1012.1
20210920020025 75 34 0.9 0.9 0.00 0.00 0.00 34 1012.1
20210920015542 76 42 0.0 0.9 0.00 0.00 0.00 34 1012.0
20210920015039 76 229 0.0 0.9 0.00 0.00 0.00 34 1012.1
20210920014534 76 167 0.0 2.6 0.00 0.00 0.00 33 1012.0
20210920014031 76 82 0.9 2.6 0.00 0.00 0.00 33 1012.0
20210920013528 77 150 0.0 5.2 0.00 0.00 0.00 33 1012.0
20210920013023 77 72 0.9 5.2 0.00 0.00 0.00 33 1012.0
20210920012539 77 51 1.7 2.6 0.00 0.00 0.00 32 1012.0
20210920012035 78 118 0.0 3.5 0.00 0.00 0.00 32 1012.0
20210920011530 78 89 1.7 4.3 0.00 0.00 0.00 32 1012.1
20210920011103 78 44 0.9 4.3 0.00 0.00 0.00 32 1012.0
20210920010539 78 109 0.9 7.0 0.00 0.00 0.00 32 1012.0
20210920010034 78 128 0.9 7.0 0.00 0.00 0.00 32 1012.0
20210920005530 79 70 2.6 5.2 0.00 0.00 0.00 32 1012.0
20210920005028 79 157 0.9 4.3 0.00 0.00 0.00 32 1012.0
20210920004524 79 132 0.9 4.3 0.00 0.00 0.00 31 1012.0
20210920004039 79 217 0.9 4.3 0.00 0.00 0.00 31 1012.0
20210920003536 80 131 1.7 4.3 0.00 0.00 0.00 31 1012.0
20210920003030 80 120 1.7 4.3 0.00 0.00 0.00 31 1012.1
20210920002525 80 161 0.0 4.3 0.00 0.00 0.00 31 1012.1
20210920002042 80 107 0.9 2.6 0.00 0.00 0.00 31 1012.2
20210920001538 79 124 0.9 8.7 0.00 0.00 0.00 31 1012.2
20210920001045 80 340 1.7 5.2 0.00 0.00 0.00 31 1012.2
20210920000541 80 279 1.7 5.2 0.00 0.00 0.00 30 1012.2
20210920000036 81 308 0.9 3.5 0.00 0.00 0.00 30 1012.3
20210919235531 81 169 0.9 3.5 0.00 0.00 0.00 30 1012.3
20210919235028 81 167 0.9 3.5 0.00 0.00 0.00 29 1012.3
20210919234525 82 70 1.7 5.2 0.00 0.00 0.00 29 1012.3
20210919234042 81 168 0.9 5.2 0.00 0.00 0.00 30 1012.4
20210919233538 82 50 0.9 4.3 0.00 0.00 0.00 29 1012.5
20210919233032 82 197 1.7 4.3 0.00 0.00 0.00 29 1012.4
20210919232533 82 126 2.6 4.3 0.00 0.00 0.00 29 1012.5
20210919232029 82 194 1.7 4.3 0.00 0.00 0.00 30 1012.5
20210919231524 81 128 0.9 7.0 0.00 0.00 0.00 31 1012.7
20210919231050 81 119 0.9 7.8 0.00 0.00 0.00 31 1012.8
20210919230524 82 345 2.6 7.8 0.00 0.00 0.00 30 1012.8
20210919230039 82 72 0.9 4.3 0.00 0.00 0.00 31 1012.6
20210919225536 81 102 0.9 3.5 0.00 0.00 0.00 31 1012.7
20210919225032 82 113 1.7 3.5 0.00 0.00 0.00 30 1012.8
20210919224527 82 339 0.9 4.3 0.00 0.00 0.00 30 1012.8
20210919224042 82 332 2.6 5.2 0.00 0.00 0.00 30 1012.8
20210919223539 82 162 1.7 5.2 0.00 0.00 0.00 31 1012.9
20210919223034 81 234 1.7 5.2 0.00 0.00 0.00 31 1013.0
20210919222529 81 66 2.6 7.0 0.00 0.00 0.00 31 1013.1
20210919222026 82 304 1.7 7.0 0.00 0.00 0.00 31 1013.0
20210919221541 83 101 1.7 5.2 0.00 0.00 0.00 30 1013.1
20210919221047 83 138 0.0 1.7 0.00 0.00 0.00 31 1013.1
20210919220524 81 224 0.9 3.5 0.00 0.00 0.00 32 1013.1
20210919220022 80 347 0.0 3.5 0.00 0.00 0.00 34 1013.2
20210919215538 79 94 0.9 6.1 0.00 0.00 0.00 34 1013.3
20210919215034 79 153 0.9 6.1 0.00 0.00 0.00 34 1013.3
20210919214530 80 100 1.7 5.2 0.00 0.00 0.00 33 1013.4
20210919214025 81 98 0.9 3.5 0.00 0.00 0.00 32 1013.4
20210919213541 81 253 0.9 3.5 0.00 0.00 0.00 32 1013.4
20210919213036 82 129 0.9 5.2 0.00 0.00 0.00 32 1013.5
20210919212532 82 307 0.9 5.2 0.00 0.00 0.00 31 1013.4
20210919212028 83 221 3.5 5.2 0.00 0.00 0.00 30 1013.5
20210919211523 83 224 1.7 7.0 0.00 0.00 0.00 31 1013.5
20210919211049 82 210 2.6 7.0 0.00 0.00 0.00 30 1013.7
20210919210525 82 155 1.7 9.6 0.00 0.00 0.00 32 1013.8
20210919210022 82 155 4.3 9.6 0.00 0.00 0.00 31 1013.7
20210919205537 82 230 2.6 6.1 0.00 0.00 0.00 32 1013.7
20210919205033 82 220 1.7 4.3 0.00 0.00 0.00 32 1013.8
20210919204529 96 248 1.7 6.1 0.00 0.00 0.00 33 1013.8
20210919204025 81 224 2.6 7.0 0.00 0.00 0.00 34 1013.9
20210919203526 80 127 1.7 7.0 0.00 0.00 0.00 34 1014.0
20210919203040 80 224 2.6 5.2 0.00 0.00 0.00 34 1014.0
20210919202536 79 312 1.7 7.8 0.00 0.00 0.00 34 1014.2
20210919202031 79 278 3.5 7.8 0.00 0.00 0.00 33 1014.3
20210919201527 80 224 2.6 7.0 0.00 0.00 0.00 32 1014.3
20210919201055 81 222 0.9 7.0 0.00 0.00 0.00 32 1014.2
20210919200531 81 225 1.7 7.8 0.00 0.00 0.00 32 1014.1
20210919200026 80 33 2.6 7.8 0.00 0.00 0.00 32 1014.3
20210919195541 81 65 3.5 5.2 0.00 0.00 0.00 32 1014.2
20210919195037 81 210 2.6 6.1 0.00 0.00 0.00 32 1014.3
20210919194532 80 164 1.7 6.1 0.00 0.00 0.00 33 1014.4
20210919194027 79 162 0.9 6.1 0.00 0.00 0.00 36 1014.4
20210919193525 79 221 1.7 6.1 0.00 0.00 0.00 35 1014.4
20210919193036 78 210 2.6 6.1 0.00 0.00 0.00 38 1014.5
20210919192532 77 180 1.7 6.1 0.00 0.00 0.00 37 1014.5
20210919192027 77 63 0.9 5.2 0.00 0.00 0.00 39 1014.6
20210919191523 77 150 2.6 5.2 0.00 0.00 0.00 37 1014.5
20210919191049 77 117 1.7 4.3 0.00 0.00 0.00 42 1014.7
20210919190527 77 134 0.9 3.5 0.00 0.00 0.00 40 1014.8
20210919190035 77 112 0.9 7.0 0.00 0.00 0.00 43 1014.8
20210919185531 76 126 1.7 7.0 0.00 0.00 0.00 44 1014.8
20210919185027 77 225 2.6 7.0 0.00 0.00 0.00 43 1014.8
20210919184523 76 213 1.7 7.0 0.00 0.00 0.00 44 1014.9
20210919184039 76 136 1.7 6.1 0.00 0.00 0.00 44 1014.9
20210919183537 76 219 1.7 6.1 0.00 0.00 0.00 43 1015.0
20210919183032 76 8 1.7 6.1 0.00 0.00 0.00 43 1015.0
20210919182529 76 135 2.6 6.1 0.00 0.00 0.00 44 1015.1
20210919182026 76 167 1.7 4.3 0.00 0.00 0.00 46 1015.2
20210919181542 75 128 0.9 7.0 0.00 0.00 0.00 46 1015.2
20210919181049 75 162 1.7 7.0 0.00 0.00 0.00 46 1015.2
20210919180525 75 235 2.6 4.3 0.00 0.00 0.00 45 1015.3
20210919180039 75 148 0.9 7.8 0.00 0.00 0.00 47 1015.3
20210919175535 74 225 2.6 7.8 0.00 0.00 0.00 45 1015.3
20210919175030 74 115 0.9 7.0 0.00 0.00 0.00 46 1015.4
20210919174525 74 231 0.9 4.3 0.00 0.00 0.00 46 1015.4
20210919174027 74 163 0.0 3.5 0.00 0.00 0.00 48 1015.4
20210919173524 73 269 0.9 6.1 0.00 0.00 0.00 49 1015.3
20210919173039 73 151 1.7 6.1 0.00 0.00 0.00 49 1015.3
20210919172534 72 143 0.9 4.3 0.00 0.00 0.00 51 1015.3
20210919172031 72 264 1.7 4.3 0.00 0.00 0.00 52 1015.3
20210919171526 71 193 2.6 7.8 0.00 0.00 0.00 53 1015.2
20210919171053 71 219 2.6 7.8 0.00 0.00 0.00 55 1015.1
20210919170528 71 243 1.7 4.3 0.00 0.00 0.00 54 1015.1
20210919170022 71 123 1.7 3.5 0.00 0.00 0.00 56 1015.1
20210919165539 70 186 1.7 4.3 0.00 0.00 0.00 57 1015.1
20210919165034 70 293 1.7 4.3 0.00 0.00 0.00 57 1015.0
20210919164531 70 204 0.9 4.3 0.00 0.00 0.00 58 1015.1
20210919164029 69 151 0.9 5.2 0.00 0.00 0.00 61 1015.1
20210919163542 68 175 0.9 5.2 0.00 0.00 0.00 63 1015.1
20210919163038 67 105 0.9 4.3 0.00 0.00 0.00 64 1015.1
20210919162533 67 222 1.7 4.3 0.00 0.00 0.00 65 1015.1
20210919162029 66 353 0.9 3.5 0.00 0.00 0.00 67 1015.1
20210919161529 65 298 0.9 2.6 0.00 0.00 0.00 70 1015.2
20210919161056 65 64 0.9 1.7 0.00 0.00 0.00 70 1015.2
20210919160533 64 58 0.0 1.7 0.00 0.00 0.00 72 1015.1
20210919160028 63 210 0.0 2.6 0.00 0.00 0.00 74 1015.1
20210919155525 63 89 0.9 2.6 0.00 0.00 0.00 75 1015.0
20210919155041 62 60 0.9 2.6 0.00 0.00 0.00 77 1015.0
20210919154537 61 143 0.0 2.6 0.00 0.00 0.00 80 1015.0
20210919154032 61 65 0.9 2.6 0.00 0.00 0.00 83 1015.0
20210919153526 60 116 0.0 1.7 0.00 0.00 0.00 85 1015.0
20210919153041 60 53 0.0 0.0 0.00 0.00 0.00 87 1014.9
20210919152538 59 52 0.0 0.0 0.00 0.00 0.00 87 1015.0
20210919152033 59 11 0.0 0.9 0.00 0.00 0.00 88 1015.0
20210919151529 59 10 0.0 0.9 0.00 0.00 0.00 89 1015.0
20210919151056 58 11 0.0 0.9 0.00 0.00 0.00 90 1015.0
20210919150531 58 11 0.0 0.9 0.00 0.00 0.00 90 1015.0
20210919150026 57 11 0.0 0.9 0.00 0.00 0.00 91 1015.1
20210919145533 57 11 0.0 0.9 0.00 0.00 0.00 90 1015.0
20210919145030 56 5 0.0 0.9 0.00 0.00 0.00 90 1015.0
20210919144529 56 5 0.0 0.0 0.00 0.00 0.00 90 1015.0
20210919144105 0 0.0 0.0 0.00 0.00 0.00 1015.0
20210919143036 0 0.0 0.0 0.00 0.00 0.00 1015.1
20210919142532 0 0.0 0.0 0.00 0.00 0.00 1015.1
20210919142033 0 0.0 0.0 0.00 0.00 0.00 1015.1
20210919140534 0 0.0 0.0 0.00 0.00 0.00 1015.0
20210919140029 0 0.0 0.0 0.00 0.00 0.00 1014.9
20210919135526 0 0.0 0.0 0.00 0.00 0.00 1014.8
20210919135105 0 0.0 0.0 0.00 0.00 0.00 1014.9
20210919134545 0 0.0 0.0 0.00 0.00 0.00 1014.8
20210919134041 0 0.0 0.0 0.00 0.00 0.00 1014.7
20210919133537 0 0.0 0.0 0.00 0.00 0.00 1014.6
20210919133037 0 0.0 0.0 0.00 0.00 0.00 1014.5
20210919132612 0 0.0 0.0 0.00 0.00 0.00 1014.5
20210919132034 0 0.0 0.0 0.00 0.00 0.00 1014.4
20210919131530 0 0.0 0.0 0.00 0.00 0.00 1014.3
20210919131056 0 0.0 0.0 0.00 0.00 0.00 1014.3
20210919130532 0 0.0 0.0 0.00 0.00 0.00 1014.2
20210919130112 0 0.0 0.0 0.00 0.00 0.00 1014.2
20210919125531 0 0.0 0.0 0.00 0.00 0.00 1014.0
20210919125024 0 0.0 0.0 0.00 0.00 0.00 1014.1
20210919124537 0 0.0 0.0 0.00 0.00 0.00 1014.0
20210919124033 0 0.0 0.0 0.00 0.00 0.00 1014.0
20210919123615 0 0.0 0.0 0.00 0.00 0.00 1014.0
20210919123051 0 0.0 0.0 0.00 0.00 0.00 1014.0
20210919122539 0 0.0 0.0 0.00 0.00 0.00 1014.1
20210919122035 0 0.0 0.0 0.00 0.00 0.00 1013.9
20210919121531 0 0.0 0.0 0.00 0.00 0.00 1013.9
20210919120528 58 63 0.9 5.2 0.00 0.00 0.00 91 1013.8
20210919120043 58 354 0.9 1.7 0.00 0.00 0.00 91 1013.7
20210919115538 58 65 0.0 1.7 0.00 0.00 0.00 91 1013.7
20210919115034 58 64 0.0 2.6 0.00 0.00 0.00 92 1013.7
20210919114529 58 55 1.7 2.6 0.00 0.00 0.00 92 1013.5
20210919114025 58 153 0.9 1.7 0.00 0.00 0.00 92 1013.4
20210919113524 58 181 0.0 0.0 0.00 0.00 0.00 91 1013.4
20210919113035 58 181 0.0 0.0 0.00 0.00 0.00 91 1013.5
20210919112528 59 181 0.0 0.0 0.00 0.00 0.00 91 1013.3
20210919112024 59 181 0.0 0.9 0.00 0.00 0.00 90 1013.4
20210919111523 59 210 0.0 0.9 0.00 0.00 0.00 90 1013.4
20210919111051 59 56 0.0 0.9 0.00 0.00 0.00 90 1013.4
20210919110528 59 56 0.0 0.9 0.00 0.00 0.00 90 1013.3
20210919110040 60 57 0.0 0.0 0.00 0.00 0.00 89 1013.3
20210919105536 60 56 0.0 0.9 0.00 0.00 0.00 89 1013.4
20210919105030 60 210 0.0 1.7 0.00 0.00 0.00 89 1013.4
20210919104526 60 210 0.0 2.6 0.00 0.00 0.00 89 1013.4
20210919104038 61 359 0.0 2.6 0.00 0.00 0.00 89 1013.5
20210919103532 61 229 0.0 0.9 0.00 0.00 0.00 89 1013.5
20210919103027 61 231 0.0 1.7 0.00 0.00 0.00 89 1013.5
20210919102523 61 231 0.0 1.7 0.00 0.00 0.00 89 1013.5
20210919102039 62 247 0.0 2.6 0.00 0.00 0.00 89 1013.4
20210919101532 62 249 0.9 3.5 0.00 0.00 0.00 89 1013.5
20210919101058 62 207 0.9 4.3 0.00 0.00 0.00 89 1013.6
20210919100532 62 245 0.9 5.2 0.00 0.00 0.00 89 1013.7
20210919100027 62 284 0.9 1.7 0.00 0.00 0.00 89 1013.8
20210919095525 62 208 0.0 2.6 0.00 0.00 0.00 89 1013.7
20210919095040 62 269 0.9 4.3 0.00 0.00 0.00 89 1013.6
20210919094534 62 238 0.9 4.3 0.00 0.00 0.00 89 1013.5
20210919094034 62 245 0.0 8.7 0.00 0.00 0.00 89 1013.6
20210919093037 62 229 0.9 4.3 0.00 0.00 0.00 89 1013.5
20210919092533 62 243 0.0 3.5 0.00 0.00 0.00 89 1013.5
20210919092029 62 142 1.7 3.5 0.00 0.00 0.00 89 1013.5
20210919091525 62 224 0.0 1.7 0.00 0.00 0.00 89 1013.5
20210919091053 62 224 0.0 1.7 0.00 0.00 0.00 89 1013.5
20210919090530 62 247 0.0 1.7 0.00 0.00 0.00 89 1013.4
20210919090036 62 56 0.0 1.7 0.00 0.00 0.00 89 1013.2
20210919085532 62 131 0.9 6.1 0.00 0.00 0.00 89 1013.2
20210919085028 62 231 2.6 6.1 0.00 0.00 0.00 89 1013.3
20210919084525 62 227 1.7 5.2 0.00 0.00 0.00 89 1013.4
20210919084040 62 171 0.9 3.5 0.00 0.00 0.00 89 1013.4
20210919083537 62 201 0.9 4.3 0.00 0.00 0.00 89 1013.2
20210919083032 62 228 0.9 4.3 0.00 0.00 0.00 89 1013.2
20210919082527 62 233 0.9 5.2 0.00 0.00 0.00 88 1013.2
20210919082027 62 221 1.7 5.2 0.00 0.00 0.00 88 1013.1
20210919081542 63 25 0.0 6.1 0.00 0.00 0.00 88 1013.1
20210919081050 63 210 0.9 6.1 0.00 0.00 0.00 88 1013.2
20210919080526 63 181 0.9 1.7 0.00 0.00 0.00 88 1013.0
20210919080041 63 281 0.0 2.6 0.00 0.00 0.00 88 1013.1
20210919075533 63 74 0.0 2.6 0.00 0.00 0.00 88 1013.1
20210919075029 63 91 0.0 1.7 0.00 0.00 0.00 88 1013.1
20210919074523 63 84 0.9 3.5 0.00 0.00 0.00 88 1013.1
20210919074019 63 152 0.9 7.8 0.00 0.00 0.00 87 1013.1
20210919073536 63 304 0.9 3.5 0.00 0.00 0.00 87 1013.0
20210919073031 63 336 0.0 1.7 0.00 0.00 0.00 86 1012.9
20210919072524 63 218 0.9 2.6 0.00 0.00 0.00 86 1013.0
20210919072019 63 231 0.9 2.6 0.00 0.00 0.00 86 1013.0
20210919071535 63 259 0.9 2.6 0.00 0.00 0.00 85 1013.1
20210919071043 63 224 0.9 1.7 0.00 0.00 0.00 85 1013.0
20210919070531 63 23 0.9 1.7 0.00 0.00 0.00 85 1012.8
20210919070027 63 95 0.9 2.6 0.00 0.00 0.00 85 1012.9
20210919065521 64 42 0.9 4.3 0.00 0.00 0.00 84 1013.0
20210919065021 64 330 0.0 4.3 0.00 0.00 0.00 84 1013.1
20210919064537 64 46 2.6 3.5 0.00 0.00 0.00 84 1012.9
20210919064032 64 88 0.9 7.0 0.00 0.00 0.00 84 1013.0
20210919063529 64 22 3.5 7.0 0.00 0.00 0.00 84 1013.0
20210919063023 63 61 1.7 4.3 0.00 0.00 0.00 85 1013.0
20210919062539 63 49 1.7 3.5 0.00 0.00 0.00 85 1013.1
20210919062031 63 64 1.7 3.5 0.00 0.00 0.00 84 1013.1
20210919061527 63 91 0.9 2.6 0.00 0.00 0.00 84 1013.1
20210919061059 63 326 0.9 4.3 0.00 0.00 0.00 84 1013.1
20210919060535 63 338 0.0 4.3 0.00 0.00 0.00 84 1013.0
20210919060027 63 37 0.9 4.3 0.00 0.00 0.00 84 1013.0
20210919055522 63 346 0.0 1.7 0.00 0.00 0.00 84 1013.1